Time,TemperatureF,DewpointF,PressureIn,WindDirection,WindDirectionDegrees,WindSpeedMPH,WindSpeedGustMPH,Humidity,HourlyPrecipIn,Conditions,Clouds,dailyrainin,SoftwareType,DateUTC
2013-10-25 00:00:00,27.1,21.2,30.35,WNW,302,0.0,0.0,78,0.00,,---,0.00,VWS V14.01,2013-10-25 05:00:00,
2013-10-25 00:02:00,27.1,21.5,30.35,WNW,302,0.0,0.0,79,0.00,,---,0.00,VWS V14.01,2013-10-25 05:02:00,
2013-10-25 00:07:00,27.1,21.5,30.35,WNW,302,0.0,0.0,79,0.00,,---,0.00,VWS V14.01,2013-10-25 05:07:00,
2013-10-25 00:12:00,27.1,21.5,30.35,WNW,301,0.0,0.0,79,0.00,,---,0.00,VWS V14.01,2013-10-25 05:12:00,
2013-10-25 00:17:00,26.9,21.3,30.35,WNW,302,0.0,0.0,79,0.00,,---,0.00,VWS V14.01,2013-10-25 05:17:00,
2013-10-25 00:22:00,26.5,20.6,30.36,WNW,302,0.0,0.0,78,0.00,,---,0.00,VWS V14.01,2013-10-25 05:22:00,
2013-10-25 00:27:00,26.3,20.7,30.36,WNW,302,0.0,0.0,79,0.00,,---,0.00,VWS V14.01,2013-10-25 05:27:00,
2013-10-25 00:32:00,26.0,20.4,30.36,WNW,302,0.0,0.0,79,0.00,,---,0.00,VWS V14.01,2013-10-25 05:32:00,
2013-10-25 00:37:00,25.9,20.6,30.36,WNW,302,0.0,0.0,80,0.00,,---,0.00,VWS V14.01,2013-10-25 05:37:00,
2013-10-25 00:42:00,25.6,20.3,30.36,WNW,302,0.0,0.0,80,0.00,,---,0.00,VWS V14.01,2013-10-25 05:42:00,
2013-10-25 00:47:00,25.3,20.0,30.36,WNW,302,0.0,0.0,80,0.00,,---,0.00,VWS V14.01,2013-10-25 05:47:00,
2013-10-25 00:52:00,25.1,19.8,30.36,WNW,302,0.0,0.0,80,0.00,,---,0.00,VWS V14.01,2013-10-25 05:52:00,
2013-10-25 00:57:00,24.7,19.7,30.36,WNW,302,0.0,0.0,81,0.00,,---,0.00,VWS V14.01,2013-10-25 05:57:00,
2013-10-25 01:02:00,24.4,19.4,30.36,WNW,302,0.0,0.0,81,0.00,,---,0.00,VWS V14.01,2013-10-25 06:02:00,
2013-10-25 01:07:00,24.4,19.7,30.36,WNW,302,0.0,0.0,82,0.00,,---,0.00,VWS V14.01,2013-10-25 06:07:00,
2013-10-25 01:12:00,24.8,20.6,30.36,WNW,302,0.0,0.0,84,0.00,,---,0.00,VWS V14.01,2013-10-25 06:12:00,
2013-10-25 01:17:00,25.0,20.8,30.36,WNW,302,0.0,0.0,84,0.00,,---,0.00,VWS V14.01,2013-10-25 06:17:00,
2013-10-25 01:22:00,25.2,21.0,30.37,WNW,302,0.0,0.0,84,0.00,,---,0.00,VWS V14.01,2013-10-25 06:22:00,
2013-10-25 01:27:00,25.4,21.2,30.37,WNW,301,0.0,0.0,84,0.00,,---,0.00,VWS V14.01,2013-10-25 06:27:00,
2013-10-25 01:32:00,25.4,20.9,30.37,WNW,301,0.0,0.0,83,0.00,,---,0.00,VWS V14.01,2013-10-25 06:32:00,
2013-10-25 01:37:00,25.3,20.5,30.37,WNW,302,0.0,0.0,82,0.00,,---,0.00,VWS V14.01,2013-10-25 06:37:00,
2013-10-25 01:42:00,25.2,20.7,30.37,WNW,302,0.0,0.0,83,0.00,,---,0.00,VWS V14.01,2013-10-25 06:42:00,
2013-10-25 01:47:00,24.9,20.1,30.37,WNW,301,0.0,0.0,82,0.00,,---,0.00,VWS V14.01,2013-10-25 06:47:00,
2013-10-25 01:52:00,24.7,20.0,30.37,WNW,302,0.0,0.0,82,0.00,,---,0.00,VWS V14.01,2013-10-25 06:52:00,
2013-10-25 01:57:00,24.9,20.7,30.37,WNW,302,0.0,0.0,84,0.00,,---,0.00,VWS V14.01,2013-10-25 06:57:00,
2013-10-25 02:02:00,25.0,20.8,30.37,WNW,302,0.0,0.0,84,0.00,,---,0.00,VWS V14.01,2013-10-25 07:02:00,
2013-10-25 02:07:00,25.3,21.1,30.38,WNW,302,0.0,0.0,84,0.00,,---,0.00,VWS V14.01,2013-10-25 07:07:00,
2013-10-25 02:12:00,25.5,21.3,30.38,WNW,302,0.0,0.0,84,0.00,,---,0.00,VWS V14.01,2013-10-25 07:12:00,
2013-10-25 02:17:00,25.7,21.2,30.38,WNW,302,0.0,0.0,83,0.00,,---,0.00,VWS V14.01,2013-10-25 07:17:00,
2013-10-25 02:22:00,25.8,21.3,30.38,WNW,302,0.0,0.0,83,0.00,,---,0.00,VWS V14.01,2013-10-25 07:22:00,
2013-10-25 02:27:00,25.9,21.4,30.38,WNW,302,0.0,0.0,83,0.00,,---,0.00,VWS V14.01,2013-10-25 07:27:00,
2013-10-25 02:32:00,25.9,21.4,30.38,WNW,302,0.0,0.0,83,0.00,,---,0.00,VWS V14.01,2013-10-25 07:32:00,
2013-10-25 02:37:00,26.0,21.5,30.38,WNW,302,0.0,0.0,83,0.00,,---,0.00,VWS V14.01,2013-10-25 07:37:00,
2013-10-25 02:42:00,26.0,21.5,30.39,WNW,302,0.0,0.0,83,0.00,,---,0.00,VWS V14.01,2013-10-25 07:42:00,
2013-10-25 02:46:00,26.0,21.5,30.39,WNW,302,0.0,0.0,83,0.00,,---,0.00,VWS V14.01,2013-10-25 07:46:00,
2013-10-25 02:51:00,26.0,21.2,30.38,WNW,302,0.0,0.0,82,0.00,,---,0.00,VWS V14.01,2013-10-25 07:51:00,
2013-10-25 02:56:00,25.9,21.1,30.38,WNW,302,0.0,0.0,82,0.00,,---,0.00,VWS V14.01,2013-10-25 07:56:00,
2013-10-25 03:01:00,25.8,21.0,30.38,WNW,302,0.0,0.0,82,0.00,,---,0.00,VWS V14.01,2013-10-25 08:01:00,
2013-10-25 03:06:00,25.7,21.2,30.38,WNW,302,0.0,0.0,83,0.00,,---,0.00,VWS V14.01,2013-10-25 08:06:00,
2013-10-25 03:11:00,25.7,21.2,30.38,WNW,302,0.0,0.0,83,0.00,,---,0.00,VWS V14.01,2013-10-25 08:11:00,
2013-10-25 03:16:00,25.6,21.1,30.38,WNW,302,0.0,0.0,83,0.00,,---,0.00,VWS V14.01,2013-10-25 08:16:00,
2013-10-25 03:21:00,25.5,21.0,30.38,WNW,302,0.0,0.0,83,0.00,,---,0.00,VWS V14.01,2013-10-25 08:21:00,
2013-10-25 03:26:00,25.1,20.6,30.38,WNW,302,0.0,0.0,83,0.00,,---,0.00,VWS V14.01,2013-10-25 08:26:00,
2013-10-25 03:31:00,24.8,20.0,30.38,WNW,302,0.0,0.0,82,0.00,,---,0.00,VWS V14.01,2013-10-25 08:31:00,
2013-10-25 03:36:00,24.7,20.2,30.38,WNW,302,0.0,0.0,83,0.00,,---,0.00,VWS V14.01,2013-10-25 08:36:00,
2013-10-25 03:41:00,24.9,20.7,30.38,WNW,302,0.0,0.0,84,0.00,,---,0.00,VWS V14.01,2013-10-25 08:41:00,
2013-10-25 03:46:00,24.8,20.6,30.38,WNW,302,0.0,0.0,84,0.00,,---,0.00,VWS V14.01,2013-10-25 08:46:00,
2013-10-25 03:51:00,24.6,20.4,30.38,WNW,302,0.0,0.0,84,0.00,,---,0.00,VWS V14.01,2013-10-25 08:51:00,
2013-10-25 03:56:00,24.5,20.3,30.39,WNW,302,0.0,0.0,84,0.00,,---,0.00,VWS V14.01,2013-10-25 08:56:00,
2013-10-25 04:01:00,25.1,21.4,30.39,WNW,302,0.0,0.0,86,0.00,,---,0.00,VWS V14.01,2013-10-25 09:01:00,
2013-10-25 04:06:00,25.4,21.4,30.38,WNW,302,0.0,0.0,85,0.00,,---,0.00,VWS V14.01,2013-10-25 09:06:00,
2013-10-25 04:11:00,25.5,21.5,30.38,WNW,302,0.0,0.0,85,0.00,,---,0.00,VWS V14.01,2013-10-25 09:11:00,
2013-10-25 04:16:00,25.6,21.6,30.38,WNW,302,0.0,0.0,85,0.00,,---,0.00,VWS V14.01,2013-10-25 09:16:00,
2013-10-25 04:21:00,25.6,21.4,30.38,WNW,302,0.0,0.0,84,0.00,,---,0.00,VWS V14.01,2013-10-25 09:21:00,
2013-10-25 04:26:00,25.4,21.2,30.38,WNW,300,0.0,0.0,84,0.00,,---,0.00,VWS V14.01,2013-10-25 09:26:00,
2013-10-25 04:31:00,25.4,21.2,30.38,WNW,302,0.0,0.0,84,0.00,,---,0.00,VWS V14.01,2013-10-25 09:31:00,
2013-10-25 04:36:00,25.4,21.4,30.38,WNW,302,0.0,0.0,85,0.00,,---,0.00,VWS V14.01,2013-10-25 09:36:00,
2013-10-25 04:41:00,25.4,21.4,30.38,WNW,302,0.0,0.0,85,0.00,,---,0.00,VWS V14.01,2013-10-25 09:41:00,
2013-10-25 04:46:00,25.3,21.3,30.39,WNW,302,0.0,0.0,85,0.00,,---,0.00,VWS V14.01,2013-10-25 09:46:00,
2013-10-25 04:51:00,25.3,21.3,30.39,WNW,302,0.0,0.0,85,0.00,,---,0.00,VWS V14.01,2013-10-25 09:51:00,
2013-10-25 04:56:00,25.3,21.3,30.39,WNW,302,0.0,0.0,85,0.00,,---,0.00,VWS V14.01,2013-10-25 09:56:00,
2013-10-25 05:01:00,25.0,20.8,30.39,WNW,302,0.0,0.0,84,0.00,,---,0.00,VWS V14.01,2013-10-25 10:01:00,
2013-10-25 05:06:00,24.7,20.5,30.40,WNW,302,0.0,0.0,84,0.00,,---,0.00,VWS V14.01,2013-10-25 10:06:00,
2013-10-25 05:11:00,24.6,20.6,30.40,WNW,302,0.0,0.0,85,0.00,,---,0.00,VWS V14.01,2013-10-25 10:11:00,
2013-10-25 05:16:00,24.4,20.4,30.39,WNW,302,0.0,0.0,85,0.00,,---,0.00,VWS V14.01,2013-10-25 10:16:00,
2013-10-25 05:21:00,24.2,20.0,30.40,WNW,302,0.0,0.0,84,0.00,,---,0.00,VWS V14.01,2013-10-25 10:21:00,
2013-10-25 05:26:00,24.0,20.0,30.40,WNW,302,0.0,0.0,85,0.00,,---,0.00,VWS V14.01,2013-10-25 10:26:00,
2013-10-25 05:31:00,23.8,19.9,30.40,WNW,302,0.0,0.0,85,0.00,,---,0.00,VWS V14.01,2013-10-25 10:31:00,
2013-10-25 05:36:00,23.7,19.8,30.40,WNW,302,0.0,0.0,85,0.00,,---,0.00,VWS V14.01,2013-10-25 10:36:00,
2013-10-25 05:41:00,23.7,20.0,30.40,WNW,302,0.0,0.0,86,0.00,,---,0.00,VWS V14.01,2013-10-25 10:41:00,
2013-10-25 05:46:00,23.6,19.9,30.40,WNW,300,0.0,0.0,86,0.00,,---,0.00,VWS V14.01,2013-10-25 10:46:00,
2013-10-25 05:51:00,23.6,19.9,30.40,WNW,302,0.0,0.0,86,0.00,,---,0.00,VWS V14.01,2013-10-25 10:51:00,
2013-10-25 05:56:00,23.9,20.5,30.40,WNW,302,0.0,0.0,86,0.00,,---,0.00,VWS V14.01,2013-10-25 10:56:00,
2013-10-25 06:01:00,24.0,20.6,30.40,WNW,302,0.0,0.0,86,0.00,,---,0.00,VWS V14.01,2013-10-25 11:01:00,
2013-10-25 06:06:00,23.9,20.5,30.40,WNW,302,0.0,0.0,86,0.00,,---,0.00,VWS V14.01,2013-10-25 11:06:00,
2013-10-25 06:11:00,23.8,20.4,30.40,WNW,302,0.0,0.0,86,0.00,,---,0.00,VWS V14.01,2013-10-25 11:11:00,
2013-10-25 06:16:00,23.7,20.3,30.40,WNW,302,0.0,0.0,86,0.00,,---,0.00,VWS V14.01,2013-10-25 11:16:00,
2013-10-25 06:21:00,23.7,20.3,30.40,WNW,302,0.0,0.0,86,0.00,,---,0.00,VWS V14.01,2013-10-25 11:21:00,
2013-10-25 06:26:00,23.7,20.3,30.40,WNW,302,0.0,0.0,86,0.00,,---,0.00,VWS V14.01,2013-10-25 11:26:00,
2013-10-25 06:31:00,23.9,20.5,30.40,WNW,302,0.0,0.0,86,0.00,,---,0.00,VWS V14.01,2013-10-25 11:31:00,
2013-10-25 06:36:00,24.1,20.9,30.40,WNW,302,0.0,0.0,87,0.00,,---,0.00,VWS V14.01,2013-10-25 11:36:00,
2013-10-25 06:41:00,24.2,21.0,30.40,WNW,302,0.0,0.0,87,0.00,,---,0.00,VWS V14.01,2013-10-25 11:41:00,
2013-10-25 06:46:00,24.3,21.1,30.40,WNW,302,0.0,0.0,87,0.00,,---,0.00,VWS V14.01,2013-10-25 11:46:00,
2013-10-25 06:51:00,24.5,21.3,30.40,WNW,302,0.0,0.0,87,0.00,,---,0.00,VWS V14.01,2013-10-25 11:51:00,
2013-10-25 06:56:00,24.6,21.4,30.40,WNW,302,0.0,0.0,87,0.00,,---,0.00,VWS V14.01,2013-10-25 11:56:00,
2013-10-25 07:01:00,24.7,21.5,30.40,WNW,302,0.0,0.0,87,0.00,,---,0.00,VWS V14.01,2013-10-25 12:01:00,
2013-10-25 07:06:00,24.8,21.6,30.40,WNW,301,0.0,0.0,87,0.00,,---,0.00,VWS V14.01,2013-10-25 12:06:00,
2013-10-25 07:11:00,24.9,21.7,30.40,WNW,302,0.0,0.0,87,0.00,,---,0.00,VWS V14.01,2013-10-25 12:11:00,
2013-10-25 07:16:00,24.8,21.6,30.40,WNW,302,0.0,0.0,87,0.00,,---,0.00,VWS V14.01,2013-10-25 12:16:00,
2013-10-25 07:21:00,24.7,21.5,30.40,WNW,300,0.0,0.0,87,0.00,,---,0.00,VWS V14.01,2013-10-25 12:21:00,
2013-10-25 07:26:00,24.5,21.0,30.40,WNW,300,0.0,0.0,86,0.00,,---,0.00,VWS V14.01,2013-10-25 12:26:00,
2013-10-25 07:31:00,24.3,20.9,30.40,WNW,301,0.0,0.0,86,0.00,,---,0.00,VWS V14.01,2013-10-25 12:31:00,
2013-10-25 07:36:00,24.1,20.7,30.40,WNW,301,0.0,0.0,86,0.00,,---,0.00,VWS V14.01,2013-10-25 12:36:00,
2013-10-25 07:41:00,24.0,20.8,30.40,WNW,300,0.0,0.0,87,0.00,,---,0.00,VWS V14.01,2013-10-25 12:41:00,
2013-10-25 07:46:00,24.2,21.0,30.40,WNW,300,0.0,0.0,87,0.00,,---,0.00,VWS V14.01,2013-10-25 12:46:00,
2013-10-25 07:51:00,24.5,21.3,30.41,WNW,300,0.0,0.0,87,0.00,,---,0.00,VWS V14.01,2013-10-25 12:51:00,
2013-10-25 07:56:00,24.9,22.0,30.41,WNW,301,0.0,0.0,88,0.00,,---,0.00,VWS V14.01,2013-10-25 12:56:00,
2013-10-25 08:01:00,25.5,22.5,30.41,SSW,204,0.0,0.0,88,0.00,,---,0.00,VWS V14.01,2013-10-25 13:01:00,
2013-10-25 08:06:00,25.9,22.9,30.41,SSW,204,0.0,0.0,88,0.00,,---,0.00,VWS V14.01,2013-10-25 13:06:00,
2013-10-25 08:11:00,26.4,23.4,30.41,SSW,205,0.0,0.0,88,0.00,,---,0.00,VWS V14.01,2013-10-25 13:11:00,
2013-10-25 08:16:00,26.6,23.6,30.41,SSW,204,0.0,0.0,88,0.00,,---,0.00,VWS V14.01,2013-10-25 13:16:00,
2013-10-25 08:21:00,26.7,23.5,30.41,SSW,205,0.0,0.0,87,0.00,,---,0.00,VWS V14.01,2013-10-25 13:21:00,
2013-10-25 08:26:00,26.8,23.6,30.41,SSW,204,0.0,0.0,87,0.00,,---,0.00,VWS V14.01,2013-10-25 13:26:00,
2013-10-25 08:31:00,27.0,23.8,30.41,SSW,204,0.0,0.0,87,0.00,,---,0.00,VWS V14.01,2013-10-25 13:31:00,
2013-10-25 08:36:00,27.5,24.3,30.41,SSW,204,0.0,0.0,87,0.00,,---,0.00,VWS V14.01,2013-10-25 13:36:00,
2013-10-25 08:41:00,28.3,25.3,30.41,SSW,204,0.0,0.0,88,0.00,,---,0.00,VWS V14.01,2013-10-25 13:41:00,
2013-10-25 08:46:00,29.0,26.0,30.42,SW,214,1.8,1.8,88,0.00,,---,0.00,VWS V14.01,2013-10-25 13:46:00,
2013-10-25 08:51:00,29.6,26.1,30.41,SSW,204,3.6,3.6,86,0.00,,---,0.00,VWS V14.01,2013-10-25 13:51:00,
2013-10-25 08:56:00,30.1,26.3,30.41,South,173,0.0,7.2,86,0.00,,---,0.00,VWS V14.01,2013-10-25 13:56:00,
2013-10-25 09:01:00,30.5,26.2,30.41,SSW,211,1.8,5.4,84,0.00,,---,0.00,VWS V14.01,2013-10-25 14:01:00,
2013-10-25 09:06:00,30.9,26.3,30.41,SSW,194,1.8,1.8,83,0.00,,---,0.00,VWS V14.01,2013-10-25 14:06:00,
2013-10-25 09:11:00,31.4,26.8,30.41,SSW,212,1.8,1.8,83,0.00,,---,0.00,VWS V14.01,2013-10-25 14:11:00,
2013-10-25 09:16:00,31.9,27.0,30.41,SSW,201,7.2,7.2,82,0.00,,---,0.00,VWS V14.01,2013-10-25 14:16:00,
2013-10-25 09:21:00,32.2,26.7,30.41,WSW,257,1.8,3.6,80,0.00,,---,0.00,VWS V14.01,2013-10-25 14:21:00,
2013-10-25 09:26:00,32.4,26.9,30.41,SSW,211,0.0,0.0,80,0.00,,---,0.00,VWS V14.01,2013-10-25 14:26:00,
2013-10-25 09:31:00,32.7,27.5,30.41,WSW,241,0.0,1.8,81,0.00,,---,0.00,VWS V14.01,2013-10-25 14:31:00,
2013-10-25 09:36:00,33.1,27.9,30.41,WSW,249,0.0,1.8,81,0.00,,---,0.00,VWS V14.01,2013-10-25 14:36:00,
2013-10-25 09:41:00,33.5,28.3,30.41,SSE,161,1.8,5.4,81,0.00,,---,0.00,VWS V14.01,2013-10-25 14:41:00,
2013-10-25 09:46:00,33.8,28.3,30.40,SSE,165,3.6,7.2,80,0.00,,---,0.00,VWS V14.01,2013-10-25 14:46:00,
2013-10-25 09:51:00,34.2,28.4,30.40,SSW,211,1.8,1.8,79,0.00,,---,0.00,VWS V14.01,2013-10-25 14:51:00,
2013-10-25 09:56:00,34.7,28.9,30.40,SW,222,1.8,7.2,79,0.00,,---,0.00,VWS V14.01,2013-10-25 14:56:00,
2013-10-25 10:01:00,35.1,29.0,30.40,West,264,1.8,3.6,78,0.00,,---,0.00,VWS V14.01,2013-10-25 15:01:00,
2013-10-25 10:06:00,35.6,29.5,30.40,SW,225,1.8,1.8,78,0.00,,---,0.00,VWS V14.01,2013-10-25 15:06:00,
2013-10-25 10:11:00,36.1,30.0,30.40,SSW,208,1.8,3.6,78,0.00,,---,0.00,VWS V14.01,2013-10-25 15:11:00,
2013-10-25 10:16:00,36.5,30.0,30.40,South,170,7.2,7.2,77,0.00,,---,0.00,VWS V14.01,2013-10-25 15:16:00,
2013-10-25 10:21:00,37.3,30.8,30.40,SSW,211,1.8,5.4,77,0.00,,---,0.00,VWS V14.01,2013-10-25 15:21:00,
2013-10-25 10:26:00,38.1,31.0,30.40,WSW,249,1.8,3.6,75,0.00,,---,0.00,VWS V14.01,2013-10-25 15:26:00,
2013-10-25 10:31:00,38.7,31.3,30.40,WSW,243,1.8,1.8,74,0.00,,---,0.00,VWS V14.01,2013-10-25 15:31:00,
2013-10-25 10:36:00,39.2,31.4,30.40,West,266,5.4,7.2,73,0.00,,---,0.00,VWS V14.01,2013-10-25 15:36:00,
2013-10-25 10:41:00,39.6,31.2,30.39,South,180,3.6,7.2,72,0.00,,---,0.00,VWS V14.01,2013-10-25 15:41:00,
2013-10-25 10:46:00,40.2,31.5,30.39,West,266,3.6,5.4,71,0.00,,---,0.00,VWS V14.01,2013-10-25 15:46:00,
2013-10-25 10:51:00,40.8,31.7,30.39,SW,229,1.8,3.6,70,0.00,,---,0.00,VWS V14.01,2013-10-25 15:51:00,
2013-10-25 10:56:00,41.6,32.8,30.39,WSW,250,5.4,5.4,71,0.00,,---,0.00,VWS V14.01,2013-10-25 15:56:00,
2013-10-25 11:01:00,42.1,31.9,30.39,WSW,255,3.6,9.0,67,0.00,,---,0.00,VWS V14.01,2013-10-25 16:01:00,
2013-10-25 11:06:00,42.5,32.3,30.39,WSW,248,5.4,5.4,67,0.00,,---,0.00,VWS V14.01,2013-10-25 16:06:00,
2013-10-25 11:11:00,43.0,32.5,30.39,WSW,248,1.8,3.6,66,0.00,,---,0.00,VWS V14.01,2013-10-25 16:11:00,
2013-10-25 11:16:00,43.7,33.1,30.38,SSW,211,5.4,5.4,66,0.00,,---,0.00,VWS V14.01,2013-10-25 16:16:00,
2013-10-25 11:21:00,44.2,32.5,30.38,NW,306,1.8,3.6,63,0.00,,---,0.00,VWS V14.01,2013-10-25 16:21:00,
2013-10-25 11:26:00,44.9,32.4,30.38,West,259,1.8,5.4,61,0.00,,---,0.00,VWS V14.01,2013-10-25 16:26:00,
2013-10-25 11:31:00,45.9,33.4,30.38,WSW,250,1.8,1.8,61,0.00,,---,0.00,VWS V14.01,2013-10-25 16:31:00,
2013-10-25 11:36:00,46.3,32.6,30.38,WSW,250,3.6,3.6,59,0.00,,---,0.00,VWS V14.01,2013-10-25 16:36:00,
2013-10-25 11:41:00,46.8,32.7,30.38,WSW,239,1.8,1.8,58,0.00,,---,0.00,VWS V14.01,2013-10-25 16:41:00,
2013-10-25 11:46:00,47.9,34.1,30.38,SSE,165,0.0,1.8,59,0.00,,---,0.00,VWS V14.01,2013-10-25 16:46:00,
2013-10-25 11:51:00,48.5,32.2,30.37,NW,309,3.6,3.6,53,0.00,,---,0.00,VWS V14.01,2013-10-25 16:51:00,
2013-10-25 11:56:00,48.9,32.5,30.37,WSW,243,3.6,5.4,53,0.00,,---,0.00,VWS V14.01,2013-10-25 16:56:00,
2013-10-25 12:01:00,49.4,32.1,30.37,West,259,3.6,7.2,51,0.00,,---,0.00,VWS V14.01,2013-10-25 17:01:00,
2013-10-25 12:06:00,49.6,31.4,30.37,WNW,294,3.6,3.6,49,0.00,,---,0.00,VWS V14.01,2013-10-25 17:06:00,
2013-10-25 12:11:00,49.9,31.2,30.37,SW,231,5.4,9.0,48,0.00,,---,0.00,VWS V14.01,2013-10-25 17:11:00,
2013-10-25 12:16:00,50.0,30.8,30.36,WNW,294,3.6,3.6,47,0.00,,---,0.00,VWS V14.01,2013-10-25 17:16:00,
2013-10-25 12:21:00,50.2,31.0,30.36,SW,229,5.4,7.2,47,0.00,,---,0.00,VWS V14.01,2013-10-25 17:21:00,
2013-10-25 12:26:00,50.4,31.6,30.35,WNW,293,1.8,3.6,48,0.00,,---,0.00,VWS V14.01,2013-10-25 17:26:00,
2013-10-25 12:31:00,51.0,30.7,30.35,NW,311,5.4,5.4,46,0.00,,---,0.00,VWS V14.01,2013-10-25 17:31:00,
2013-10-25 12:36:00,50.9,29.1,30.35,SW,231,5.4,5.4,43,0.00,,---,0.00,VWS V14.01,2013-10-25 17:36:00,
2013-10-25 12:41:00,50.9,30.1,30.34,West,267,1.8,3.6,45,0.00,,---,0.00,VWS V14.01,2013-10-25 17:41:00,
2013-10-25 12:46:00,51.3,30.0,30.34,WSW,257,5.4,7.2,44,0.00,,---,0.00,VWS V14.01,2013-10-25 17:46:00,
2013-10-25 12:51:00,51.4,29.0,30.33,SW,225,7.2,10.8,42,0.00,,---,0.00,VWS V14.01,2013-10-25 17:51:00,
2013-10-25 12:56:00,51.7,30.4,30.33,WSW,253,9.0,9.0,44,0.00,,---,0.00,VWS V14.01,2013-10-25 17:56:00,
2013-10-25 13:01:00,51.8,29.4,30.32,West,263,3.6,5.4,42,0.00,,---,0.00,VWS V14.01,2013-10-25 18:01:00,
2013-10-25 13:06:00,51.5,29.6,30.32,WNW,302,5.4,5.4,43,0.00,,---,0.00,VWS V14.01,2013-10-25 18:06:00,
2013-10-25 13:11:00,51.4,28.5,30.32,SW,229,7.2,10.8,41,0.00,,---,0.00,VWS V14.01,2013-10-25 18:11:00,
2013-10-25 13:16:00,51.3,28.4,30.31,WSW,249,5.4,7.2,41,0.00,,---,0.00,VWS V14.01,2013-10-25 18:16:00,
2013-10-25 13:21:00,51.3,29.5,30.31,West,276,7.2,12.6,43,0.00,,---,0.00,VWS V14.01,2013-10-25 18:21:00,
2013-10-25 13:26:00,51.4,29.0,30.31,West,267,5.4,5.4,42,0.00,,---,0.00,VWS V14.01,2013-10-25 18:26:00,
2013-10-25 13:31:00,51.3,30.0,30.30,SW,218,5.4,5.4,44,0.00,,---,0.00,VWS V14.01,2013-10-25 18:31:00,
2013-10-25 13:36:00,51.5,29.6,30.30,WSW,253,9.0,10.8,43,0.00,,---,0.00,VWS V14.01,2013-10-25 18:36:00,
2013-10-25 13:41:00,51.8,29.4,30.30,SW,236,1.8,3.6,42,0.00,,---,0.00,VWS V14.01,2013-10-25 18:41:00,
2013-10-25 13:46:00,51.7,28.7,30.29,WNW,288,3.6,3.6,41,0.00,,---,0.00,VWS V14.01,2013-10-25 18:46:00,
2013-10-25 13:51:00,52.0,29.0,30.29,SW,223,3.6,7.2,41,0.00,,---,0.00,VWS V14.01,2013-10-25 18:51:00,
2013-10-25 13:56:00,52.1,28.5,30.29,SW,235,3.6,9.0,40,0.00,,---,0.00,VWS V14.01,2013-10-25 18:56:00,
2013-10-25 14:01:00,52.0,28.4,30.29,South,191,3.6,3.6,40,0.00,,---,0.00,VWS V14.01,2013-10-25 19:01:00,
2013-10-25 14:06:00,52.0,29.0,30.28,WSW,240,1.8,1.8,41,0.00,,---,0.00,VWS V14.01,2013-10-25 19:06:00,
2013-10-25 14:11:00,52.2,28.6,30.28,West,262,5.4,5.4,40,0.00,,---,0.00,VWS V14.01,2013-10-25 19:11:00,
2013-10-25 14:15:00,52.4,28.8,30.28,WNW,287,3.6,5.4,40,0.00,,---,0.00,VWS V14.01,2013-10-25 19:15:00,
2013-10-25 14:20:00,52.3,27.0,30.28,SW,222,5.4,5.4,37,0.00,,---,0.00,VWS V14.01,2013-10-25 19:20:00,
2013-10-25 14:25:00,52.2,28.0,30.27,WNW,291,5.4,5.4,39,0.00,,---,0.00,VWS V14.01,2013-10-25 19:25:00,
2013-10-25 14:30:00,52.3,27.5,30.27,WSW,252,9.0,12.6,38,0.00,,---,0.00,VWS V14.01,2013-10-25 19:30:00,
2013-10-25 14:35:00,52.0,26.7,30.26,SW,221,10.8,10.8,37,0.00,,---,0.00,VWS V14.01,2013-10-25 19:35:00,
2013-10-25 14:40:00,52.0,27.3,30.26,WSW,253,9.0,9.0,38,0.00,,---,0.00,VWS V14.01,2013-10-25 19:40:00,
2013-10-25 14:45:00,52.3,27.5,30.26,WSW,256,5.4,5.4,38,0.00,,---,0.00,VWS V14.01,2013-10-25 19:45:00,
2013-10-25 14:50:00,52.2,27.5,30.26,WNW,294,7.2,7.2,38,0.00,,---,0.00,VWS V14.01,2013-10-25 19:50:00,
2013-10-25 14:55:00,52.4,27.6,30.25,WNW,297,3.6,3.6,38,0.00,,---,0.00,VWS V14.01,2013-10-25 19:55:00,
2013-10-25 15:00:00,52.7,28.5,30.25,West,274,7.2,9.0,39,0.00,,---,0.00,VWS V14.01,2013-10-25 20:00:00,
2013-10-25 15:05:00,52.6,27.8,30.25,WSW,248,1.8,1.8,38,0.00,,---,0.00,VWS V14.01,2013-10-25 20:05:00,
2013-10-25 15:10:00,52.6,27.8,30.25,SW,217,3.6,3.6,38,0.00,,---,0.00,VWS V14.01,2013-10-25 20:10:00,
2013-10-25 15:15:00,52.5,27.1,30.25,SW,229,10.8,10.8,37,0.00,,---,0.00,VWS V14.01,2013-10-25 20:15:00,
2013-10-25 15:20:00,52.4,27.0,30.24,WSW,246,5.4,5.4,37,0.00,,---,0.00,VWS V14.01,2013-10-25 20:20:00,
2013-10-25 15:25:00,52.6,27.2,30.24,SW,228,9.0,10.8,37,0.00,,---,0.00,VWS V14.01,2013-10-25 20:25:00,
2013-10-25 15:30:00,52.8,26.8,30.24,West,264,5.4,7.2,36,0.00,,---,0.00,VWS V14.01,2013-10-25 20:30:00,
2013-10-25 15:35:00,52.7,26.7,30.24,South,184,7.2,9.0,36,0.00,,---,0.00,VWS V14.01,2013-10-25 20:35:00,
2013-10-25 15:40:00,52.7,26.7,30.23,West,276,5.4,5.4,36,0.00,,---,0.00,VWS V14.01,2013-10-25 20:40:00,
2013-10-25 15:45:00,52.7,26.7,30.23,West,278,5.4,5.4,36,0.00,,---,0.00,VWS V14.01,2013-10-25 20:45:00,
2013-10-25 15:50:00,52.7,25.4,30.23,WSW,245,7.2,9.0,34,0.00,,---,0.00,VWS V14.01,2013-10-25 20:50:00,
2013-10-25 15:55:00,52.7,26.1,30.22,WNW,285,5.4,7.2,35,0.00,,---,0.00,VWS V14.01,2013-10-25 20:55:00,
2013-10-25 16:00:00,52.7,25.4,30.22,West,262,7.2,16.2,34,0.00,,---,0.00,VWS V14.01,2013-10-25 21:00:00,
2013-10-25 16:05:00,52.7,26.1,30.22,SW,236,3.6,18.0,35,0.00,,---,0.00,VWS V14.01,2013-10-25 21:05:00,
2013-10-25 16:10:00,52.7,26.1,30.21,West,271,3.6,3.6,35,0.00,,---,0.00,VWS V14.01,2013-10-25 21:10:00,
2013-10-25 16:15:00,52.8,25.5,30.21,WSW,240,10.8,14.4,34,0.00,,---,0.00,VWS V14.01,2013-10-25 21:15:00,
2013-10-25 16:20:00,52.7,25.4,30.21,WSW,250,7.2,10.8,34,0.00,,---,0.00,VWS V14.01,2013-10-25 21:20:00,
2013-10-25 16:25:00,52.7,25.4,30.21,West,269,3.6,12.6,34,0.00,,---,0.00,VWS V14.01,2013-10-25 21:25:00,
2013-10-25 16:30:00,52.9,25.6,30.20,WSW,237,7.2,21.6,34,0.00,,---,0.00,VWS V14.01,2013-10-25 21:30:00,
2013-10-25 16:35:00,52.9,24.9,30.20,West,267,5.4,16.2,33,0.00,,---,0.00,VWS V14.01,2013-10-25 21:35:00,
2013-10-25 16:40:00,52.8,24.2,30.19,SW,222,9.0,14.4,33,0.00,,---,0.00,VWS V14.01,2013-10-25 21:40:00,
2013-10-25 16:45:00,52.7,24.8,30.19,WSW,245,5.4,19.8,33,0.00,,---,0.00,VWS V14.01,2013-10-25 21:45:00,
2013-10-25 16:50:00,52.7,24.8,30.19,SW,222,19.8,19.8,33,0.00,,---,0.00,VWS V14.01,2013-10-25 21:50:00,
2013-10-25 16:55:00,52.4,24.5,30.19,WSW,243,1.8,14.4,33,0.00,,---,0.00,VWS V14.01,2013-10-25 21:55:00,
2013-10-25 17:00:00,52.3,24.4,30.18,West,269,5.4,18.0,33,0.00,,---,0.00,VWS V14.01,2013-10-25 22:00:00,
2013-10-25 17:05:00,52.2,25.0,30.18,West,259,7.2,10.8,34,0.00,,---,0.00,VWS V14.01,2013-10-25 22:05:00,
2013-10-25 17:10:00,52.0,24.8,30.18,SW,218,5.4,12.6,34,0.00,,---,0.00,VWS V14.01,2013-10-25 22:10:00,
2013-10-25 17:15:00,51.8,25.3,30.17,SW,225,3.6,10.8,35,0.00,,---,0.00,VWS V14.01,2013-10-25 22:15:00,
2013-10-25 17:20:00,51.6,25.1,30.17,SSW,212,3.6,12.6,35,0.00,,---,0.00,VWS V14.01,2013-10-25 22:20:00,
2013-10-25 17:25:00,51.4,24.9,30.17,WSW,240,9.0,10.8,35,0.00,,---,0.00,VWS V14.01,2013-10-25 22:25:00,
2013-10-25 17:30:00,51.2,24.7,30.17,SW,217,5.4,10.8,35,0.00,,---,0.00,VWS V14.01,2013-10-25 22:30:00,
2013-10-25 17:35:00,51.0,23.9,30.17,WSW,256,7.2,12.6,34,0.00,,---,0.00,VWS V14.01,2013-10-25 22:35:00,
2013-10-25 17:40:00,50.8,24.4,30.16,West,259,1.8,9.0,35,0.00,,---,0.00,VWS V14.01,2013-10-25 22:40:00,
2013-10-25 17:45:00,50.5,24.1,30.16,WSW,252,3.6,14.4,35,0.00,,---,0.00,VWS V14.01,2013-10-25 22:45:00,
2013-10-25 17:50:00,50.1,24.4,30.16,SW,225,0.0,5.4,36,0.00,,---,0.00,VWS V14.01,2013-10-25 22:50:00,
2013-10-25 17:55:00,49.8,24.7,30.16,SW,220,1.8,3.6,37,0.00,,---,0.00,VWS V14.01,2013-10-25 22:55:00,
2013-10-25 18:00:00,49.3,24.3,30.16,WSW,256,3.6,7.2,37,0.00,,---,0.00,VWS V14.01,2013-10-25 23:00:00,
2013-10-25 18:05:00,49.0,24.6,30.16,SSW,211,3.6,7.2,38,0.00,,---,0.00,VWS V14.01,2013-10-25 23:05:00,
2013-10-25 18:10:00,48.6,24.2,30.16,SW,214,1.8,5.4,38,0.00,,---,0.00,VWS V14.01,2013-10-25 23:10:00,
2013-10-25 18:15:00,48.3,24.5,30.15,SW,214,3.6,7.2,39,0.00,,---,0.00,VWS V14.01,2013-10-25 23:15:00,
2013-10-25 18:20:00,48.0,24.8,30.15,SW,226,1.8,9.0,40,0.00,,---,0.00,VWS V14.01,2013-10-25 23:20:00,
2013-10-25 18:25:00,47.7,25.1,30.15,SSW,211,3.6,7.2,41,0.00,,---,0.00,VWS V14.01,2013-10-25 23:25:00,
2013-10-25 18:30:00,47.5,25.5,30.15,West,264,1.8,5.4,42,0.00,,---,0.00,VWS V14.01,2013-10-25 23:30:00,
2013-10-25 18:35:00,47.4,25.4,30.15,WSW,240,3.6,9.0,42,0.00,,---,0.00,VWS V14.01,2013-10-25 23:35:00,
2013-10-25 18:40:00,47.5,25.5,30.15,SW,217,3.6,9.0,42,0.00,,---,0.00,VWS V14.01,2013-10-25 23:40:00,
2013-10-25 18:45:00,47.5,25.5,30.15,WSW,248,1.8,12.6,42,0.00,,---,0.00,VWS V14.01,2013-10-25 23:45:00,
2013-10-25 18:50:00,47.3,25.3,30.15,SSW,198,1.8,7.2,42,0.00,,---,0.00,VWS V14.01,2013-10-25 23:50:00,
2013-10-25 18:55:00,47.1,25.6,30.15,SSW,208,3.6,9.0,43,0.00,,---,0.00,VWS V14.01,2013-10-25 23:55:00,
2013-10-25 19:00:00,46.9,25.5,30.14,WSW,250,1.8,5.4,43,0.00,,---,0.00,VWS V14.01,2013-10-26 00:00:00,
2013-10-25 19:05:00,46.7,25.3,30.14,SSW,211,3.6,7.2,43,0.00,,---,0.00,VWS V14.01,2013-10-26 00:05:00,
2013-10-25 19:10:00,46.7,25.3,30.13,SSW,211,3.6,10.8,43,0.00,,---,0.00,VWS V14.01,2013-10-26 00:10:00,
2013-10-25 19:15:00,46.5,25.1,30.13,South,174,3.6,16.2,43,0.00,,---,0.00,VWS V14.01,2013-10-26 00:15:00,
2013-10-25 19:20:00,46.3,24.9,30.13,SW,235,1.8,14.4,43,0.00,,---,0.00,VWS V14.01,2013-10-26 00:20:00,
2013-10-25 19:25:00,46.1,24.7,30.13,SW,217,7.2,14.4,43,0.00,,---,0.00,VWS V14.01,2013-10-26 00:25:00,
2013-10-25 19:30:00,45.9,24.6,30.13,SSW,198,5.4,9.0,43,0.00,,---,0.00,VWS V14.01,2013-10-26 00:30:00,
2013-10-25 19:35:00,45.7,24.9,30.13,SW,214,5.4,10.8,44,0.00,,---,0.00,VWS V14.01,2013-10-26 00:35:00,
2013-10-25 19:40:00,45.4,24.6,30.12,WNW,283,1.8,10.8,44,0.00,,---,0.00,VWS V14.01,2013-10-26 00:40:00,
2013-10-25 19:45:00,45.2,24.4,30.12,SSW,210,7.2,10.8,44,0.00,,---,0.00,VWS V14.01,2013-10-26 00:45:00,
2013-10-25 19:50:00,45.1,24.4,30.12,WSW,256,3.6,14.4,44,0.00,,---,0.00,VWS V14.01,2013-10-26 00:50:00,
2013-10-25 19:55:00,44.9,24.7,30.12,WSW,238,5.4,16.2,45,0.00,,---,0.00,VWS V14.01,2013-10-26 00:55:00,
2013-10-25 20:00:00,44.7,24.5,30.12,SSW,211,5.4,12.6,45,0.00,,---,0.00,VWS V14.01,2013-10-26 01:00:00,
2013-10-25 20:05:00,44.6,24.9,30.12,SW,214,7.2,12.6,46,0.00,,---,0.00,VWS V14.01,2013-10-26 01:05:00,
2013-10-25 20:10:00,44.4,24.7,30.12,South,187,3.6,14.4,46,0.00,,---,0.00,VWS V14.01,2013-10-26 01:10:00,
2013-10-25 20:15:00,44.2,24.5,30.12,WSW,253,3.6,12.6,46,0.00,,---,0.00,VWS V14.01,2013-10-26 01:15:00,
2013-10-25 20:20:00,44.1,24.9,30.11,SSW,211,3.6,12.6,46,0.00,,---,0.00,VWS V14.01,2013-10-26 01:20:00,
2013-10-25 20:25:00,43.9,24.7,30.11,SW,229,5.4,16.2,46,0.00,,---,0.00,VWS V14.01,2013-10-26 01:25:00,
2013-10-25 20:30:00,43.8,25.1,30.11,WSW,255,1.8,10.8,47,0.00,,---,0.00,VWS V14.01,2013-10-26 01:30:00,
2013-10-25 20:35:00,43.7,25.0,30.11,SW,231,3.6,12.6,47,0.00,,---,0.00,VWS V14.01,2013-10-26 01:35:00,
2013-10-25 20:40:00,43.6,24.9,30.11,WSW,240,3.6,12.6,47,0.00,,---,0.00,VWS V14.01,2013-10-26 01:40:00,
2013-10-25 20:45:00,43.5,25.3,30.11,SW,214,3.6,10.8,48,0.00,,---,0.00,VWS V14.01,2013-10-26 01:45:00,
2013-10-25 20:50:00,43.5,25.3,30.11,WSW,255,3.6,12.6,48,0.00,,---,0.00,VWS V14.01,2013-10-26 01:50:00,
2013-10-25 20:55:00,43.4,25.2,30.11,South,190,3.6,12.6,48,0.00,,---,0.00,VWS V14.01,2013-10-26 01:55:00,
2013-10-25 21:00:00,43.4,25.7,30.10,South,177,7.2,10.8,49,0.00,,---,0.00,VWS V14.01,2013-10-26 02:00:00,
2013-10-25 21:05:00,43.4,25.7,30.10,SW,220,7.2,12.6,49,0.00,,---,0.00,VWS V14.01,2013-10-26 02:05:00,
2013-10-25 21:10:00,43.3,25.6,30.11,SW,214,3.6,18.0,49,0.00,,---,0.00,VWS V14.01,2013-10-26 02:10:00,
2013-10-25 21:15:00,43.3,25.6,30.10,SSW,212,5.4,9.0,49,0.00,,---,0.00,VWS V14.01,2013-10-26 02:15:00,
2013-10-25 21:20:00,43.2,25.9,30.10,SSW,193,3.6,14.4,50,0.00,,---,0.00,VWS V14.01,2013-10-26 02:20:00,
2013-10-25 21:25:00,43.1,25.9,30.10,SW,222,3.6,10.8,50,0.00,,---,0.00,VWS V14.01,2013-10-26 02:25:00,
2013-10-25 21:30:00,43.1,25.9,30.10,SW,226,5.4,12.6,50,0.00,,---,0.00,VWS V14.01,2013-10-26 02:30:00,
2013-10-25 21:35:00,43.1,25.9,30.10,WSW,252,3.6,7.2,50,0.00,,---,0.00,VWS V14.01,2013-10-26 02:35:00,
2013-10-25 21:40:00,43.1,25.9,30.10,SW,217,1.8,7.2,50,0.00,,---,0.00,VWS V14.01,2013-10-26 02:40:00,
2013-10-25 21:45:00,43.1,25.9,30.10,SSW,203,0.0,7.2,50,0.00,,---,0.00,VWS V14.01,2013-10-26 02:45:00,
2013-10-25 21:50:00,43.0,26.2,30.09,SW,233,9.0,9.0,51,0.00,,---,0.00,VWS V14.01,2013-10-26 02:50:00,
2013-10-25 21:55:00,43.0,25.8,30.09,SSW,205,3.6,7.2,50,0.00,,---,0.00,VWS V14.01,2013-10-26 02:55:00,
2013-10-25 22:00:00,42.9,26.1,30.09,SE,127,1.8,10.8,51,0.00,,---,0.00,VWS V14.01,2013-10-26 03:00:00,
2013-10-25 22:05:00,42.9,26.1,30.08,SW,224,1.8,7.2,51,0.00,,---,0.00,VWS V14.01,2013-10-26 03:05:00,
2013-10-25 22:10:00,42.9,26.1,30.08,West,278,3.6,16.2,51,0.00,,---,0.00,VWS V14.01,2013-10-26 03:10:00,
2013-10-25 22:15:00,43.1,26.3,30.08,East,85,10.8,16.2,51,0.00,,---,0.00,VWS V14.01,2013-10-26 03:15:00,
2013-10-25 22:20:00,43.1,26.3,30.08,SSW,196,5.4,14.4,51,0.00,,---,0.00,VWS V14.01,2013-10-26 03:20:00,
2013-10-25 22:25:00,43.2,26.4,30.08,South,188,7.2,16.2,51,0.00,,---,0.00,VWS V14.01,2013-10-26 03:25:00,
2013-10-25 22:30:00,43.1,26.3,30.08,SW,232,12.6,12.6,51,0.00,,---,0.00,VWS V14.01,2013-10-26 03:30:00,
2013-10-25 22:35:00,43.1,26.3,30.08,West,276,7.2,10.8,51,0.00,,---,0.00,VWS V14.01,2013-10-26 03:35:00,
2013-10-25 22:40:00,43.0,26.2,30.07,WSW,256,1.8,14.4,51,0.00,,---,0.00,VWS V14.01,2013-10-26 03:40:00,
2013-10-25 22:45:00,43.0,26.2,30.07,SW,214,1.8,10.8,51,0.00,,---,0.00,VWS V14.01,2013-10-26 03:45:00,
2013-10-25 22:50:00,43.1,26.3,30.07,SSW,198,3.6,16.2,51,0.00,,---,0.00,VWS V14.01,2013-10-26 03:50:00,
2013-10-25 22:55:00,43.1,26.3,30.07,WSW,253,3.6,14.4,51,0.00,,---,0.00,VWS V14.01,2013-10-26 03:55:00,
2013-10-25 23:00:00,43.1,26.3,30.07,West,259,3.6,9.0,51,0.00,,---,0.00,VWS V14.01,2013-10-26 04:00:00,
2013-10-25 23:01:00,43.1,26.3,30.07,WSW,243,5.4,7.2,51,0.00,,---,0.00,VWS V14.01,2013-10-26 04:01:00,
2013-10-25 23:06:00,43.2,26.4,30.06,SSW,197,5.4,5.4,51,0.00,,---,0.00,VWS V14.01,2013-10-26 04:06:00,
2013-10-25 23:11:00,43.2,26.4,30.06,SW,229,3.6,10.8,51,0.00,,---,0.00,VWS V14.01,2013-10-26 04:11:00,
2013-10-25 23:16:00,43.2,26.4,30.06,SSW,205,7.2,12.6,51,0.00,,---,0.00,VWS V14.01,2013-10-26 04:16:00,
2013-10-25 23:21:00,43.3,26.5,30.06,SSW,209,7.2,9.0,51,0.00,,---,0.00,VWS V14.01,2013-10-26 04:21:00,
2013-10-25 23:26:00,43.3,26.5,30.05,SW,236,3.6,5.4,51,0.00,,---,0.00,VWS V14.01,2013-10-26 04:26:00,
2013-10-25 23:31:00,43.5,26.2,30.05,SSW,198,5.4,7.2,50,0.00,,---,0.00,VWS V14.01,2013-10-26 04:31:00,
2013-10-25 23:36:00,43.9,26.6,30.05,West,273,5.4,12.6,50,0.00,,---,0.00,VWS V14.01,2013-10-26 04:36:00,
2013-10-25 23:41:00,44.2,26.4,30.05,WSW,250,10.8,10.8,49,0.00,,---,0.00,VWS V14.01,2013-10-26 04:41:00,
2013-10-25 23:46:00,44.7,26.4,30.05,WSW,256,3.6,5.4,48,0.00,,---,0.00,VWS V14.01,2013-10-26 04:46:00,
2013-10-25 23:51:00,44.9,26.1,30.05,West,276,3.6,7.2,47,0.00,,---,0.00,VWS V14.01,2013-10-26 04:51:00,
2013-10-25 23:56:00,45.0,26.2,30.05,WSW,255,7.2,10.8,47,0.00,,---,0.00,VWS V14.01,2013-10-26 04:56:00,